Torna al catalogo

USA 369

AttivoMilitareVLEO
NORAD 59829·PAYLOAD·🇺🇸 United States

Lanciato May 22, 2024 da Vandenberg Space Force Base

Loading…

Prossimi Passaggi (prossime 24 ore)

TLE

ObsoletoSource: Mike McCants

Epoca: Aug 17, 2026, 22:06 UTC

1 59829U 24096R   26229.92115996 0.00000000  00000-0  00000-0 0    00
2 59829  70.0176 157.0983 0003000  53.4135 306.5865 14.96714006    04

Traccia USA 369 in tempo reale con AllMySat

Download on the App Store